Wind_Speed
25 26 25 25 25 25 26 27 27 26 26 25 26 26 26 27 28 29 29 30 31 31 33 34 35 36 38 39 40 40 41 41 41 41 42 43 45 46 48 49 50 50 50 50
25 25 26 26 25 26 27 27 27 27 26 26 25 26 26 26 27 28 29 29 30 31 31 33 34 36 37 38 39 40 40 41 42 42 43 43 44 46 47 48 49 50 51 51
26 26 26 26 25 26 26 27 27 28 27 26 26 26 27 27 27 28 29 29 30 30 31 32 33 34 35 36 38 39 40 41 42 43 43 43 44 45 46 47 48 49 50 50
26 26 26 25 24 25 25 25 26 26 27 27 26 27 27 27 28 27 27 28 30 30 30 31 32 33 33 34 36 37 39 40 40 41 42 43 43 44 45 46 47 47 48 49
26 27 27 25 24 24 24 24 24 24 25 26 27 27 27 27 27 27 27 27 29 30 30 31 32 33 34 35 35 36 37 38 38 40 41 43 43 44 44 45 47 47 48 49
26 27 27 26 26 25 25 24 23 24 24 25 26 27 27 27 27 27 27 28 29 30 30 31 31 32 34 35 36 37 38 38 39 39 40 41 42 43 44 45 46 47 48 49
24 26 26 26 27 26 25 24 24 24 24 25 25 26 26 26 27 27 28 28 29 30 31 31 31 33 34 35 36 37 38 39 40 40 41 41 42 43 44 45 46 47 48 49
23 24 24 25 26 26 25 25 25 25 24 25 25 25 25 26 26 27 27 28 29 30 31 32 32 33 34 35 36 37 38 39 40 41 41 42 42 43 43 44 45 46 47 48
23 23 23 24 25 25 25 25 25 25 25 26 25 25 25 26 26 27 28 29 29 30 31 32 33 34 34 35 36 37 38 39 40 41 42 43 43 43 44 44 45 45 46 46
23 22 22 23 24 25 25 25 26 26 27 27 26 26 26 27 27 28 29 30 30 31 32 33 33 34 34 35 35 36 37 39 40 40 42 43 44 44 44 44 44 44 44 45
24 23 23 23 24 24 25 25 27 28 28 28 28 27 27 27 27 27 28 29 30 31 32 33 33 33 34 34 34 34 36 37 38 39 40 41 42 42 42 42 43 43 44 45
24 24 25 24 24 24 24 25 26 27 27 28 28 27 27 27 27 27 28 29 29 30 30 31 32 32 32 33 33 34 34 35 36 37 37 38 38 39 39 40 41 43 42 42
24 24 25 25 25 24 25 25 26 26 27 27 27 27 27 27 27 27 27 28 29 29 29 30 30 31 31 31 32 33 33 34 35 35 35 36 36 37 37 38 38 39 40 40
24 24 24 24 24 24 24 25 25 25 25 26 26 27 27 27 27 27 27 27 27 28 28 29 30 30 30 30 30 31 32 32 33 34 35 35 36 36 36 37 37 38 38 38
24 24 24 24 25 25 25 25 25 25 25 24 25 25 26 26 27 26 26 27 27 27 27 28 28 29 30 30 30 29 30 31 32 33 34 34 35 35 35 36 36 36 36 37
25 25 25 25 25 24 24 25 25 25 25 24 25 25 25 25 26 26 26 26 26 27 27 28 28 28 28 28 29 29 30 30 31 32 33 34 34 35 35 35 34 34 35 35
25 25 25 25 24 24 24 24 24 25 25 25 25 25 25 25 24 25 25 25 25 26 27 27 27 28 28 28 29 30 30 31 31 32 33 33 34 34 34 34 33 34 34 35
25 26 25 25 25 24 24 24 25 25 25 25 24 24 24 24 23 23 23 24 24 25 25 26 26 27 28 28 29 30 31 31 31 31 31 32 32 32 32 33 33 34 35 36
26 26 25 25 25 24 24 24 25 25 25 25 24 24 24 23 23 23 23 24 24 25 25 26 26 27 27 28 29 30 30 30 31 31 31 31 31 31 32 33 34 35 35 35
26 25 25 24 24 24 24 24 24 24 24 24 24 24 24 24 24 24 24 24 25 25 25 25 26 27 27 27 28 28 29 29 30 30 30 31 31 32 32 33 34 35 35 36
25 25 25 25 24 24 24 24 24 24 24 24 24 24 25 25 25 24 24 24 25 25 25 25 26 26 27 28 28 28 29 29 30 30 31 32 32 33 33 34 35 35 36 36
25 25 25 24 24 24 23 24 24 24 24 25 25 25 25 25 25 25 25 25 25 25 26 27 27 28 28 28 29 29 29 30 30 31 32 33 33 34 34 35 35 36 36 37
25 24 24 24 23 24 24 24 24 24 24 24 24 25 26 26 26 25 25 25 26 26 27 28 28 28 28 28 29 29 30 31 31 32 33 33 34 35 35 36 36 37 37 37
24 24 25 24 24 24 24 24 24 24 24 24 24 25 25 25 25 26 26 26 27 27 28 28 28 29 29 29 30 30 31 31 32 33 33 33 34 35 36 36 36 37 37 37
24 24 24 24 24 24 24 24 24 24 24 24 24 24 25 25 25 26 26 26 27 27 28 28 28 29 29 30 30 31 31 31 32 32 33 34 34 35 35 35 35 35 36 36
24 24 23 23 23 23 23 22 22 22 23 23 24 24 24 25 25 25 25 25 26 26 27 27 28 29 29 30 30 31 31 32 32 33 33 33 33 33 33 33 33 33 34 34
23 23 22 22 22 21 21 21 21 22 22 22 23 23 24 24 24 24 25 25 25 26 26 27 28 28 29 30 30 31 31 31 32 32 32 32 32 32 32 32 31 31 31 32
Wind_Direction
275 276 276 276 275 272 271 271 272 273 272 272 269 269 267 264 260 257 258 257 256 256 254 253 253 253 252 251 251 252 253 254 255 256 256 256 255 256 257 257 258 258 259 260
275 274 275 275 274 273 271 272 272 272 272 272 269 267 266 265 262 259 259 258 257 257 255 254 255 255 254 253 253 254 255 255 256 256 257 258 258 258 258 258 259 259 259 260
277 276 276 274 275 274 274 273 273 273 273 269 269 269 268 267 265 262 260 258 256 257 256 255 255 256 256 256 254 255 255 256 257 257 258 259 259 259 258 259 259 259 259 260
280 277 277 279 277 276 276 275 275 272 270 269 270 270 269 267 266 265 263 260 257 257 257 256 256 255 255 257 256 255 256 257 258 258 259 259 260 260 259 259 259 260 260 260
282 280 278 278 280 280 279 275 276 275 274 272 271 270 269 269 268 266 265 262 259 257 256 256 256 256 256 257 257 258 258 259 260 260 260 260 261 261 261 261 260 260 260 261
282 281 280 281 281 281 279 278 278 277 276 275 272 270 271 271 269 268 266 263 261 259 258 258 258 258 258 258 258 259 260 260 261 262 262 262 262 263 263 263 263 263 263 262
285 283 281 282 282 280 279 280 279 279 277 276 274 273 272 271 269 268 266 264 262 261 261 260 261 261 261 260 260 261 261 261 262 263 264 264 264 265 265 265 265 265 264 264
285 285 284 284 283 281 280 278 277 276 275 275 275 275 273 272 271 269 267 265 264 263 263 263 263 263 262 262 262 262 263 263 263 264 264 264 265 265 266 266 267 267 266 265
287 288 285 284 283 281 279 278 277 276 275 274 274 275 275 275 273 271 269 267 267 266 265 266 265 265 264 264 263 263 264 264 265 265 265 264 265 266 266 266 267 267 266 266
287 288 285 285 283 282 280 278 276 275 275 274 275 276 277 276 275 273 272 271 269 268 266 267 267 268 267 266 265 265 265 265 266 266 266 265 264 266 267 267 267 267 267 266
284 285 287 287 285 283 282 279 277 276 276 276 277 277 277 276 276 275 275 273 273 271 269 268 268 269 268 267 267 267 267 267 268 268 267 266 266 266 267 267 267 266 266 265
285 285 285 287 285 282 282 280 279 279 278 278 279 278 278 277 277 277 277 275 275 273 271 270 269 269 269 269 267 267 268 267 268 268 267 266 267 267 268 268 268 266 266 266
286 286 287 287 285 282 280 280 281 281 280 279 279 278 278 278 278 279 279 278 277 275 272 271 270 270 271 271 269 268 268 268 268 268 268 268 268 269 270 270 270 269 267 266
288 288 288 287 286 284 282 282 282 282 281 280 279 278 278 278 279 280 280 280 279 276 274 273 271 270 270 270 270 269 269 269 270 269 270 270 271 271 271 271 271 270 269 268
288 289 289 288 286 284 283 283 283 283 282 280 279 279 280 280 280 281 281 281 280 277 275 275 274 272 272 271 270 270 271 271 271 272 272 272 272 272 273 272 272 271 270 269
287 288 289 289 287 284 283 284 283 283 283 283 282 281 281 281 281 281 281 281 280 277 275 274 274 274 273 272 271 272 273 273 274 274 275 274 274 275 275 274 273 272 271 270
288 288 289 289 288 286 285 284 283 283 283 283 284 284 285 284 283 282 282 282 280 278 275 275 275 275 274 274 273 273 273 274 275 276 276 275 275 275 275 274 274 274 273 272
289 289 290 288 287 287 286 284 282 281 281 282 282 283 284 284 283 284 283 283 282 280 278 278 278 278 277 276 276 276 276 276 276 277 277 276 276 276 275 275 275 275 275 274
290 290 289 288 286 285 285 284 283 282 281 281 281 282 284 284 284 284 284 283 283 282 282 282 281 280 280 280 279 279 279 279 278 278 277 277 277 277 277 277 276 276 275 275
289 289 289 288 285 284 284 284 283 282 282 281 281 282 283 284 285 284 283 284 283 283 284 284 284 283 282 282 282 282 281 280 280 279 279 279 279 279 280 280 279 278 277 277
289 288 288 287 285 284 284 284 283 282 282 282 282 281 283 284 284 283 283 284 284 283 283 284 285 285 284 284 284 283 282 282 282 281 281 281 281 281 281 281 281 280 279 278
290 288 288 287 286 285 285 284 283 283 283 283 282 281 282 283 282 282 282 283 284 284 284 285 286 286 286 286 285 284 284 284 283 283 283 283 282 282 282 282 282 281 281 280
291 290 289 288 287 287 287 286 285 284 284 283 283 282 282 283 282 281 282 283 283 284 284 285 286 287 287 287 287 287 286 286 286 285 285 285 284 283 283 283 283 282 282 281
292 291 291 289 288 288 288 287 286 285 283 282 283 283 284 285 285 284 283 284 285 285 286 286 286 287 287 288 288 289 289 288 287 287 287 287 286 286 286 285 284 284 283 282
294 294 293 292 290 289 288 289 288 286 285 284 284 284 285 285 286 286 285 286 286 287 286 286 286 287 288 289 290 290 290 290 289 289 289 289 289 289 289 288 287 286 284 283
296 295 294 293 291 290 290 290 289 288 289 288 287 286 285 285 286 287 287 287 288 288 288 288 288 289 290 291 292 292 292 292 291 290 290 291 291 291 291 290 289 288 286 285
297 297 296 294 293 292 291 291 290 290 291 291 290 288 287 287 288 288 289 289 290 291 292 292 291 292 293 293 294 294 294 294 293 293 293 293 293 293 292 291 291 290 289 287
Height
5559 5557 5555 5554 5554 5553 5552 5551 5551 5551 5550 5550 5549 5549 5549 5549 5549 5549 5550 5551 5552 5554 5555 5556 5558 5559 5561 5563 5565 5567 5569 5571 5573 5574 5576 5577 5579 5580 5582 5583 5585 5587 5588 5589
5551 5549 5547 5546 5546 5545 5544 5543 5542 5542 5542 5542 5541 5541 5541 5540 5540 5541 5542 5542 5543 5544 5545 5547 5548 5550 5551 5552 5554 5556 5558 5559 5561 5563 5564 5565 5566 5567 5569 5570 5571 5573 5574 5575
5543 5541 5539 5538 5538 5537 5536 5535 5535 5534 5535 5534 5533 5533 5532 5532 5532 5532 5533 5533 5534 5535 5536 5537 5538 5540 5541 5542 5543 5545 5546 5548 5549 5551 5552 5553 5554 5555 5556 5557 5558 5559 5560 5561
5534 5533 5531 5534 5531 5529 5528 5528 5527 5526 5526 5525 5525 5525 5524 5524 5524 5524 5524 5524 5525 5526 5527 5528 5528 5529 5530 5532 5533 5534 5535 5536 5537 5538 5539 5540 5541 5542 5542 5543 5544 5545 5546 5547
5525 5523 5523 5525 5523 5521 5520 5520 5519 5518 5517 5517 5516 5516 5516 5516 5515 5515 5515 5515 5515 5516 5517 5518 5519 5520 5521 5521 5522 5523 5524 5525 5526 5527 5527 5528 5529 5529 5530 5530 5531 5532 5532 5533
5517 5515 5515 5518 5515 5513 5513 5512 5512 5510 5509 5509 5508 5508 5509 5508 5507 5506 5506 5506 5506 5507 5508 5508 5509 5510 5511 5511 5512 5513 5513 5514 5515 5515 5516 5516 5516 5517 5517 5517 5517 5518 5518 5518
5510 5507 5508 5508 5506 5505 5506 5506 5504 5502 5501 5500 5500 5500 5500 5499 5498 5498 5497 5497 5498 5498 5498 5499 5499 5500 5500 5501 5501 5502 5502 5503 5503 5504 5504 5504 5504 5504 5504 5504 5504 5504 5504 5504
5503 5501 5503 5500 5498 5497 5497 5496 5495 5494 5493 5492 5492 5491 5491 5490 5489 5489 5489 5489 5488 5489 5489 5489 5489 5490 5490 5490 5490 5490 5491 5491 5491 5491 5491 5491 5491 5491 5490 5490 5490 5489 5489 5489
5497 5497 5494 5491 5490 5489 5488 5487 5486 5485 5485 5484 5484 5483 5482 5482 5481 5480 5480 5479 5479 5479 5479 5479 5479 5479 5479 5479 5479 5479 5479 5479 5478 5478 5478 5478 5478 5478 5477 5477 5476 5476 5475 5475
5489 5489 5486 5484 5482 5481 5480 5479 5478 5477 5477 5476 5476 5475 5474 5473 5472 5471 5471 5470 5469 5469 5468 5468 5468 5468 5468 5468 5467 5467 5467 5467 5466 5466 5465 5465 5465 5464 5464 5463 5462 5462 5461 5461
5482 5481 5479 5478 5475 5474 5472 5471 5470 5469 5468 5468 5467 5466 5465 5464 5463 5462 5461 5460 5459 5459 5458 5458 5458 5457 5457 5457 5456 5456 5455 5455 5454 5454 5453 5452 5452 5451 5450 5450 5449 5448 5448 5447
5475 5473 5471 5470 5468 5466 5465 5463 5462 5461 5460 5459 5458 5457 5456 5455 5454 5453 5451 5450 5449 5448 5448 5447 5447 5446 5446 5445 5445 5445 5444 5443 5443 5442 5441 5440 5439 5438 5437 5437 5435 5435 5434 5434
5467 5465 5463 5461 5459 5458 5456 5455 5454 5453 5451 5450 5449 5448 5447 5446 5445 5443 5442 5441 5440 5438 5438 5437 5436 5436 5435 5435 5434 5434 5433 5432 5431 5431 5430 5429 5428 5427 5426 5425 5423 5422 5421 5421
5459 5457 5455 5453 5451 5450 5448 5447 5446 5444 5443 5442 5441 5439 5438 5437 5436 5434 5433 5432 5430 5429 5428 5427 5426 5426 5425 5424 5423 5423 5422 5421 5420 5419 5419 5418 5417 5416 5414 5413 5412 5410 5409 5408
5451 5449 5447 5445 5443 5442 5440 5439 5438 5436 5435 5433 5432 5431 5429 5428 5427 5425 5424 5422 5421 5420 5419 5418 5417 5416 5415 5414 5413 5412 5411 5411 5410 5409 5408 5407 5405 5404 5403 5401 5400 5399 5398 5397
5444 5441 5439 5437 5436 5434 5433 5431 5430 5428 5427 5425 5424 5422 5421 5419 5417 5416 5415 5413 5412 5411 5410 5409 5407 5406 5405 5405 5404 5403 5402 5401 5399 5398 5397 5396 5394 5393 5392 5390 5389 5388 5386 5385
5435 5433 5431 5430 5428 5426 5425 5423 5422 5420 5419 5417 5416 5414 5412 5410 5409 5407 5405 5404 5403 5401 5400 5399 5398 5397 5396 5395 5394 5393 5392 5390 5389 5388 5387 5385 5384 5382 5381 5379 5378 5376 5375 5374
5427 5425 5423 5421 5420 5418 5417 5415 5413 5412 5410 5409 5407 5406 5404 5402 5401 5399 5397 5396 5394 5393 5392 5390 5389 5388 5387 5386 5385 5383 5382 5380 5379 5378 5376 5374 5373 5371 5370 5368 5367 5365 5364 5362
5419 5417 5415 5413 5412 5410 5408 5407 5405 5404 5402 5401 5399 5398 5396 5395 5393 5391 5390 5388 5386 5385 5383 5382 5380 5379 5378 5376 5375 5373 5372 5370 5369 5367 5366 5364 5362 5361 5359 5358 5356 5354 5352 5351
5411 5409 5407 5405 5403 5402 5400 5398 5397 5395 5394 5392 5391 5390 5388 5387 5385 5383 5382 5380 5379 5377 5375 5374 5372 5371 5369 5367 5366 5364 5362 5360 5359 5357 5355 5354 5352 5350 5348 5346 5344 5342 5341 5339
5403 5401 5399 5397 5395 5393 5392 5390 5389 5387 5385 5384 5383 5381 5380 5379 5377 5375 5374 5372 5371 5369 5367 5365 5364 5362 5360 5358 5356 5354 5353 5351 5349 5347 5345 5343 5341 5339 5337 5335 5333 5331 5329 5327
5394 5392 5390 5388 5386 5385 5383 5381 5380 5378 5377 5375 5374 5373 5371 5370 5368 5367 5365 5364 5362 5360 5359 5357 5355 5353 5351 5349 5347 5345 5343 5341 5339 5336 5334 5332 5330 5328 5326 5323 5321 5319 5317 5314
5385 5383 5381 5380 5378 5376 5374 5373 5371 5370 5368 5367 5365 5364 5362 5361 5359 5358 5357 5355 5353 5351 5350 5348 5346 5344 5341 5339 5337 5335 5333 5330 5328 5326 5323 5321 5319 5316 5314 5311 5309 5306 5304 5302
5377 5375 5373 5371 5369 5368 5366 5364 5362 5361 5359 5358 5356 5355 5354 5352 5351 5349 5347 5346 5344 5342 5340 5338 5336 5334 5332 5329 5327 5325 5322 5320 5317 5315 5312 5310 5307 5304 5302 5299 5296 5294 5291 5289
5369 5367 5365 5363 5361 5359 5357 5355 5354 5352 5350 5349 5348 5346 5345 5343 5342 5340 5338 5336 5335 5333 5330 5328 5326 5324 5322 5320 5317 5315 5312 5309 5307 5304 5301 5298 5296 5293 5290 5286 5284 5281 5278 5276
5361 5359 5357 5355 5353 5351 5349 5347 5345 5344 5342 5340 5339 5337 5336 5334 5332 5331 5329 5327 5325 5323 5321 5319 5317 5315 5312 5310 5307 5305 5302 5299 5296 5293 5290 5287 5284 5281 5278 5275 5272 5269 5266 5264
5354 5351 5349 5347 5345 5343 5341 5339 5338 5336 5334 5332 5331 5329 5327 5326 5324 5322 5320 5318 5317 5315 5312 5310 5308 5305 5303 5300 5297 5295 5292 5289 5285 5282 5279 5276 5273 5270 5266 5263 5260 5257 5255 5252